N148AW MDJB-MDJB

Flight info

Callsign N148AW
Flight time 1h 3m
Altitude 800
Route VFR
Aircraft B407/L-SFG/C

Departure

Time 2026-05-05 22:10
Airport La Isabela International Airport (MDJB)

Arrival

Time 2026-05-05 23:13
Airport La Isabela International Airport (MDJB)
Time Latitude Longitude Altitude Speed Heading
2026-05-05 20:50 18.57885 -69.98264 98 ft 0 kts 96°
2026-05-05 20:50 18.57884 -69.98263 98 ft 0 kts 276°
2026-05-05 20:52 18.57891 -69.98324 118 ft 5 kts 347°
2026-05-05 20:52 18.58109 -69.98311 238 ft 67 kts 23°
2026-05-05 20:52 18.58455 -69.97994 434 ft 74 kts 93°
2026-05-05 20:53 18.58170 -69.97650 502 ft 72 kts 164°
2026-05-05 20:53 18.57636 -69.97636 414 ft 86 kts 170°
2026-05-05 20:53 18.57066 -69.97631 419 ft 83 kts 172°
2026-05-05 20:53 18.56448 -69.97614 462 ft 94 kts 171°
2026-05-05 20:54 18.55774 -69.97522 424 ft 94 kts 166°
2026-05-05 20:54 18.55150 -69.97385 425 ft 89 kts 164°
2026-05-05 20:54 18.54540 -69.97240 437 ft 89 kts 166°
2026-05-05 20:54 18.53960 -69.97118 477 ft 82 kts 167°
2026-05-05 20:55 18.53397 -69.96992 486 ft 90 kts 167°
2026-05-05 20:55 18.52771 -69.96858 474 ft 91 kts 167°
2026-05-05 20:55 18.52132 -69.96684 384 ft 98 kts 160°
2026-05-05 20:55 18.51514 -69.96518 444 ft 87 kts 158°
2026-05-05 20:56 18.50950 -69.96405 490 ft 85 kts 162°
2026-05-05 20:56 18.50339 -69.96285 524 ft 94 kts 159°
2026-05-05 20:56 18.49652 -69.96107 540 ft 105 kts 153°
2026-05-05 20:56 18.48945 -69.95886 593 ft 107 kts 159°
2026-05-05 20:57 18.48227 -69.95664 591 ft 105 kts 156°
2026-05-05 20:57 18.47496 -69.95433 525 ft 114 kts 152°
2026-05-05 20:57 18.46754 -69.95134 520 ft 115 kts 150°
2026-05-05 20:57 18.46048 -69.94781 553 ft 111 kts 147°
2026-05-05 20:58 18.45388 -69.94379 508 ft 108 kts 142°
2026-05-05 20:58 18.44880 -69.93873 474 ft 103 kts 127°
2026-05-05 20:58 18.44495 -69.93237 372 ft 106 kts 109°
2026-05-05 20:58 18.44443 -69.92501 398 ft 99 kts 68°
2026-05-05 20:59 18.44994 -69.92225 274 ft 74 kts
2026-05-05 20:59 18.45320 -69.92122 105 ft 26 kts 27°
2026-05-05 20:59 18.45371 -69.92078 46 ft 2 kts 33°
2026-05-05 20:59 18.45373 -69.92075 37 ft 0 kts 24°
2026-05-05 21:00 18.45373 -69.92074 39 ft 1 kts 356°
2026-05-05 21:00 18.45375 -69.92074 38 ft 0 kts 335°
2026-05-05 22:08 18.45383 -69.92082 60 ft 7 kts 128°
2026-05-05 22:08 18.45358 -69.91660 151 ft 110 kts 62°
2026-05-05 22:08 18.45531 -69.90891 376 ft 100 kts 75°
2026-05-05 22:09 18.45742 -69.90139 362 ft 114 kts 72°
2026-05-05 22:09 18.46023 -69.89346 311 ft 119 kts 71°
2026-05-05 22:09 18.46304 -69.88612 492 ft 93 kts 71°
2026-05-05 22:09 18.46554 -69.87905 451 ft 102 kts 72°
2026-05-05 22:10 18.47037 -69.87259 397 ft 125 kts 44°
2026-05-05 22:10 18.47692 -69.86646 461 ft 127 kts 51°
2026-05-05 22:10 18.48259 -69.85985 627 ft 119 kts 62°
2026-05-05 22:10 18.48593 -69.85227 774 ft 83 kts 79°
2026-05-05 22:11 18.48716 -69.84530 652 ft 107 kts 84°
2026-05-05 22:11 18.48855 -69.83737 614 ft 102 kts 83°
2026-05-05 22:11 18.48947 -69.82972 625 ft 102 kts 85°
2026-05-05 22:11 18.49070 -69.82183 496 ft 116 kts 74°
2026-05-05 22:12 18.49281 -69.81399 419 ft 117 kts 73°
2026-05-05 22:12 18.49508 -69.80736 460 ft 108 kts 56°
2026-05-05 22:12 18.50190 -69.80521 417 ft 99 kts 62°
2026-05-05 22:12 18.50072 -69.79838 392 ft 102 kts 107°
2026-05-05 22:13 18.50152 -69.79078 394 ft 112 kts 65°
2026-05-05 22:13 18.50444 -69.78331 405 ft 110 kts 64°
2026-05-05 22:13 18.50912 -69.77568 327 ft 131 kts 51°
2026-05-05 22:13 18.51305 -69.76745 325 ft 122 kts 113°
2026-05-05 22:14 18.50568 -69.76602 347 ft 116 kts 185°
2026-05-05 22:14 18.50014 -69.76774 243 ft 37 kts 228°
2026-05-05 22:14 18.49949 -69.76911 126 ft 7 kts 219°
2026-05-05 22:14 18.49928 -69.76919 140 ft 5 kts 274°
2026-05-05 22:15 18.49936 -69.76911 123 ft 1 kts 266°
2026-05-05 22:15 18.49938 -69.76911 115 ft 0 kts 260°
2026-05-05 23:07 18.49936 -69.76913 134 ft 3 kts 261°
2026-05-05 23:07 18.49949 -69.76868 176 ft 38 kts 48°
2026-05-05 23:08 18.50294 -69.76549 227 ft 80 kts 23°
2026-05-05 23:08 18.50961 -69.76477 216 ft 112 kts 349°
2026-05-05 23:08 18.51388 -69.76995 291 ft 101 kts 247°
2026-05-05 23:08 18.51171 -69.77660 417 ft 94 kts 240°
2026-05-05 23:09 18.50919 -69.78298 545 ft 96 kts 243°
2026-05-05 23:09 18.50656 -69.78943 676 ft 96 kts 242°
2026-05-05 23:09 18.50383 -69.79593 682 ft 98 kts 241°
2026-05-05 23:09 18.50092 -69.80282 553 ft 107 kts 242°
2026-05-05 23:10 18.49783 -69.80973 527 ft 98 kts 241°
2026-05-05 23:10 18.49502 -69.81645 543 ft 104 kts 241°
2026-05-05 23:10 18.49221 -69.82358 544 ft 106 kts 243°
2026-05-05 23:10 18.48928 -69.83093 559 ft 113 kts 240°
2026-05-05 23:11 18.48624 -69.83874 555 ft 117 kts 242°
2026-05-05 23:11 18.48311 -69.84672 547 ft 117 kts 242°
2026-05-05 23:11 18.48006 -69.85457 568 ft 117 kts 240°
2026-05-05 23:11 18.47671 -69.86252 556 ft 119 kts 239°
2026-05-05 23:12 18.47323 -69.87046 559 ft 120 kts 238°
2026-05-05 23:12 18.46974 -69.87841 552 ft 119 kts 238°
2026-05-05 23:12 18.46633 -69.88629 561 ft 122 kts 239°
2026-05-05 23:12 18.46271 -69.89431 548 ft 119 kts 239°
2026-05-05 23:13 18.45904 -69.90206 559 ft 118 kts 238°
2026-05-05 23:13 18.45540 -69.90967 555 ft 116 kts 237°
2026-05-05 23:13 18.45259 -69.91707 592 ft 88 kts 247°
2026-05-05 23:13 18.45134 -69.92094 334 ft 25 kts 319°
2026-05-05 23:14 18.45287 -69.92127 142 ft 23 kts 27°
2026-05-05 23:14 18.45367 -69.92082 68 ft 2 kts 31°
2026-05-05 23:14 18.45375 -69.92078 49 ft 1 kts 31°
2026-05-05 23:14 18.45376 -69.92077 36 ft 0 kts 29°
2026-05-05 23:16 18.45366 -69.92086 54 ft 12 kts 209°
2026-05-05 23:16 18.45169 -69.92220 199 ft 64 kts 201°
2026-05-05 23:16 18.45030 -69.92331 378 ft 47 kts 229°
2026-05-05 23:17 18.44857 -69.92624 335 ft 89 kts 247°
2026-05-05 23:17 18.44863 -69.93004 377 ft 104 kts 279°
2026-05-05 23:17 18.45327 -69.93621 487 ft 114 kts 325°
2026-05-05 23:17 18.45792 -69.93880 588 ft 117 kts 332°
2026-05-05 23:18 18.46400 -69.94129 701 ft 114 kts 342°
2026-05-05 23:18 18.47148 -69.94385 843 ft 117 kts 342°
2026-05-05 23:18 18.47947 -69.94670 844 ft 124 kts 342°
2026-05-05 23:18 18.48501 -69.94858 849 ft 127 kts 341°
2026-05-05 23:19 18.49361 -69.95146 829 ft 130 kts 341°
2026-05-05 23:19 18.50514 -69.95511 858 ft 131 kts 342°
2026-05-05 23:19 18.51399 -69.95776 850 ft 133 kts 343°
2026-05-05 23:19 18.52005 -69.95958 859 ft 136 kts 342°
2026-05-05 23:20 18.52935 -69.96232 850 ft 140 kts 342°
2026-05-05 23:20 18.53889 -69.96492 853 ft 143 kts 343°
2026-05-05 23:20 18.54850 -69.96753 854 ft 144 kts 343°
2026-05-05 23:20 18.55832 -69.97032 855 ft 147 kts 341°
2026-05-05 23:21 18.56792 -69.97400 858 ft 148 kts 334°
2026-05-05 23:21 18.57746 -69.97803 841 ft 146 kts 349°
2026-05-05 23:21 18.58654 -69.97702 910 ft 131 kts
2026-05-05 23:21 18.59109 -69.98278 899 ft 109 kts 235°
2026-05-05 23:22 18.58487 -69.98451 408 ft 99 kts 174°
2026-05-05 23:22 18.58061 -69.98463 510 ft 46 kts 171°
2026-05-05 23:22 18.57894 -69.98327 161 ft 21 kts 99°
2026-05-05 23:22 18.57886 -69.98270 110 ft 1 kts 99°
2026-05-05 23:23 18.57884 -69.98266 102 ft 0 kts 96°
2026-05-05 23:23 18.57884 -69.98267 98 ft 0 kts 97°